Location: Acton
(51.4942°N, 0.2232°W)
Time: 03:55:58
(UTC+00:00)

Cosmos 2279 Rocket - Pass Details

Date: 18 September 2020
Orbit: 964 x 979 km, 82.9° (Epoch: 18 October)

Event Time Altitude Azimuth Distance (km) Brightness Sun altitude
Exits shadow 20:20:51 35° 103° (ESE) 1,522 4.5 -20.5°
Maximum altitude 20:21:37 37° 87° (E) 1,490 4.5 -20.6°
Drops below altitude 10° 20:27:16 10° 23° (NNE) 2,743 6.5 -21.4°
Sets 20:29:58 0° 15° (NNE) 3,695 7.3 -21.7°
